User: anonymous   Login
Location: Castro Valley
(37.6940°N, 122.0850°W)
Time: 08:53:11
(UTC-07:00)
Language:

PANSAT - Orbit

View from above orbital plane
View from above orbital plane
View from above satellite
View from above satellite

Ground track
Ground track

The orbit data is extracted from the following two-line orbital elements,

1 25520U 98064B   16118.90688607 +.00001525 +00000-0 +46958-4 0  9991
2 25520 028.4570 291.2892 0005734 082.4648 277.6598 15.27594656970387
Epoch (UTC): 27 April 2016 21:45:54
Eccentricity: 0.0005734
inclination: 28.4570°
perigee height: 479 km
apogee height: 487 km
right ascension of ascending node: 291.2892°
argument of perigee: 82.4648°
revolutions per day: 15.27594656
mean anomaly at epoch: 277.6598°
orbit number at epoch: 97038

The dashed part of the orbit path shows where the satellite is in the earth's shadow,  

DLR